Change the Weather History Date:

Sunday, January 8, 2012

  Actual Average Record
Temperature  
Mean Temperature 40 °F 35 °F  
Max Temperature 47 °F 40 °F 57 °F (1962)
Min Temperature 32 °F 29 °F -7 °F (1937)
Degree Days  
Heating Degree Days 25 30  
Month to date heating degree days 203 247  
Since 1 July heating degree days 2299 2455  
Cooling Degree Days 0 0  
Month to date cooling degree days 0 0  
Year to date cooling degree days 0 0  
Moisture  
Dew Point 30 °F    
Average Humidity 70    
Maximum Humidity 82    
Minimum Humidity 58    
Precipitation  
Precipitation 0.00 in 0.04 in 0.63 in (1978)
Month to date precipitation T 0.29  
Year to date precipitation T 0.29  
Snow  
Snow 0.00 in 0.10 in 6.30 in (1980)
Month to date snowfall T 0.8  
Since 1 July snowfall 1.5 6.1  
Snow Depth 0.00 in    
Sea Level Pressure  
Sea Level Pressure 30.42 in    
Wind  
Wind Speed 6 mph (East)    
Max Wind Speed 13 mph    
Max Gust Speed 16 mph    
Visibility 10 miles    
Events      
T = Trace of Precipitation, MM = Missing Value Source: NWS Daily Summary

Daily Weather History Graph

Daily Weather History Graph

Search for Another Location

Airport or City:

Trip Planner

Search our weather history database for the weather conditions in past years. The results will help you decide how hot, cold, wet, or windy it might be!

Date:

Astronomy

Jan. 08, 2012 Rise Set
Actual Time 7:30 AM PST 4:19 PM PST
Civil Twilight 6:56 AM PST 4:53 PM PST
Nautical Twilight 6:18 AM PST 5:31 PM PST
Astronomical Twilight 5:42 AM PST 6:07 PM PST
Moon 4:07 PM PST (1/8) 6:51 AM PST (1/8)
Length of Visible Light 9h 57m
Length of Day
8h 48m
Full, 100% of the Moon is Illuminated
Jan 8
Full
Jan 8
Full
Jan 16
Last Quarter
Jan 22
New
Jan 30
First Quarter

Hourly Weather History & Observations

Time (PST) Temp. Windchill Dew Point Humidity Pressure Visibility Wind Dir Wind Speed Gust Speed Precip Events Conditions
12:21 AM 35.6 °F - 28.4 °F 75% 30.42 in 10.0 mi Calm Calm - N/A   Overcast
12:35 AM 35.6 °F - 28.4 °F 75% 30.42 in 10.0 mi Calm Calm - N/A   Overcast
12:56 AM 36.0 °F 31.1 °F 28.0 °F 73% 30.45 in 10.0 mi ENE 5.8 mph - N/A   Overcast
1:56 AM 36.0 °F 30.3 °F 28.0 °F 73% 30.46 in 10.0 mi East 6.9 mph - N/A   Overcast
2:56 AM 37.4 °F 32.1 °F 28.4 °F 70% 30.42 in 10.0 mi East 6.9 mph - N/A   Overcast
3:56 AM 37.4 °F 30.3 °F 30.2 °F 75% 30.40 in 10.0 mi East 10.4 mph - N/A   Overcast
4:56 AM 36.0 °F 30.3 °F 30.0 °F 79% 30.45 in 10.0 mi East 6.9 mph - N/A   Overcast
5:56 AM 36.0 °F 28.5 °F 30.0 °F 79% 30.45 in 10.0 mi East 10.4 mph - N/A   Overcast
6:56 AM 35.1 °F 30.1 °F 30.0 °F 82% 30.44 in 10.0 mi ESE 5.8 mph - N/A   Overcast
7:56 AM 37.0 °F 30.4 °F 30.0 °F 76% 30.44 in 10.0 mi East 9.2 mph - N/A   Overcast
8:56 AM 37.0 °F 30.4 °F 30.9 °F 79% 30.45 in 10.0 mi ENE 9.2 mph - N/A   Overcast
9:56 AM 39.2 °F 33.0 °F 30.2 °F 70% 30.42 in 10.0 mi East 9.2 mph - N/A   Overcast
10:56 AM 39.0 °F 34.0 °F 32.0 °F 76% 30.45 in 10.0 mi NW 6.9 mph - N/A   Overcast
11:56 AM 44.6 °F 41.4 °F 32.0 °F 61% 30.39 in 10.0 mi ENE 5.8 mph - N/A   Clear
12:56 PM 44.1 °F - 33.1 °F 65% 30.41 in 10.0 mi Calm Calm - N/A   Clear
1:56 PM 45.0 °F - 32.0 °F 60% 30.40 in 10.0 mi Calm Calm - N/A   Clear
2:56 PM 46.4 °F - 32.0 °F 57% 30.36 in 10.0 mi Calm Calm - N/A   Clear
3:56 PM 44.1 °F - 32.0 °F 63% 30.40 in 10.0 mi Calm Calm - N/A   Clear
4:56 PM 41.0 °F 39.0 °F 30.9 °F 67% 30.41 in 10.0 mi SE 3.5 mph - N/A   Clear
5:56 PM 37.9 °F 34.4 °F 30.9 °F 76% 30.42 in 10.0 mi SE 4.6 mph - N/A   Clear
6:56 PM 37.0 °F 33.3 °F 30.9 °F 79% 30.42 in 10.0 mi ESE 4.6 mph - N/A   Clear
7:56 PM 36.0 °F 30.3 °F 30.9 °F 82% 30.42 in 10.0 mi ESE 6.9 mph - N/A   Clear
8:56 PM 37.4 °F 30.8 °F 30.2 °F 75% 30.38 in 10.0 mi East 9.2 mph - N/A   Clear
9:56 PM 35.1 °F 32.2 °F 30.0 °F 82% 30.42 in 10.0 mi SSE 3.5 mph - N/A   Clear
10:56 PM 35.1 °F 32.2 °F 28.9 °F 78% 30.42 in 10.0 mi SE 3.5 mph - N/A   Clear
11:56 PM 33.1 °F 27.7 °F 28.9 °F 85% 30.40 in 10.0 mi East 5.8 mph - N/A   Clear